CCA4392 ZGHA-ZUUU

Flight info

Callsign CCA4392
Flight time N/A
Altitude 40100
Route OLT9X OLTUS W226 IPMUG W611 BIVAV W138 DYG DCT SUDPI W80 URGEG W231 EKOKA EKOKA9M
Aircraft B77W/H-SDE1E2E3FGHIJ2J3J4J5M1RWXY/LB1D1

Departure

Time 2026-05-07 15:34
Airport Changsha Huanghua International Airport (ZGHA)

Arrival

Time N/A
Airport Chengdu Shuangliu International Airport (ZUUU)
Time Latitude Longitude Altitude Speed Heading
2026-05-07 15:03 28.18431 113.21718 227 ft 0 kts 266°
2026-05-07 15:24 28.18432 113.21726 223 ft 2 kts 266°
2026-05-07 15:24 28.18433 113.21749 225 ft 3 kts 266°
2026-05-07 15:24 28.18435 113.21771 223 ft 3 kts 264°
2026-05-07 15:24 28.18438 113.21793 224 ft 3 kts 245°
2026-05-07 15:25 28.18449 113.21811 231 ft 3 kts 212°
2026-05-07 15:25 28.18463 113.21817 225 ft 1 kts 177°
2026-05-07 15:25 28.18476 113.21816 226 ft 3 kts 176°
2026-05-07 15:25 28.18496 113.21815 225 ft 2 kts 176°
2026-05-07 15:26 28.18502 113.21814 224 ft 0 kts 176°
2026-05-07 15:29 28.18500 113.21815 225 ft 0 kts 176°
2026-05-07 15:30 28.18494 113.21815 224 ft 10 kts 176°
2026-05-07 15:30 28.18376 113.21823 226 ft 16 kts 176°
2026-05-07 15:30 28.18234 113.21833 227 ft 23 kts 177°
2026-05-07 15:30 28.18100 113.21840 228 ft 22 kts 178°
2026-05-07 15:31 28.17894 113.21849 226 ft 37 kts 178°
2026-05-07 15:31 28.17770 113.21873 227 ft 8 kts 151°
2026-05-07 15:31 28.17762 113.21880 226 ft 0 kts 139°
2026-05-07 15:31 28.17756 113.21889 231 ft 9 kts 129°
2026-05-07 15:32 28.17767 113.22034 228 ft 15 kts 45°
2026-05-07 15:32 28.17838 113.22042 226 ft 0 kts 355°
2026-05-07 15:33 28.17855 113.22041 224 ft 10 kts 355°
2026-05-07 15:33 28.18122 113.22022 227 ft 78 kts 357°
2026-05-07 15:34 28.18965 113.21972 234 ft 159 kts 357°
2026-05-07 15:34 28.20109 113.21905 1036 ft 161 kts 356°
2026-05-07 15:34 28.21213 113.21831 2136 ft 158 kts
2026-05-07 15:34 28.22361 113.21763 2916 ft 171 kts
2026-05-07 15:35 28.23564 113.21690 3593 ft 177 kts
2026-05-07 15:35 28.24818 113.21614 4026 ft 182 kts
2026-05-07 15:35 28.26074 113.21536 4827 ft 183 kts
2026-05-07 15:35 28.27365 113.21459 5690 ft 191 kts
2026-05-07 15:36 28.28775 113.21376 6202 ft 219 kts 359°
2026-05-07 15:36 28.30422 113.21275 6545 ft 256 kts 359°
2026-05-07 15:36 28.32270 113.21160 7325 ft 272 kts 358°
2026-05-07 15:36 28.34187 113.21038 8363 ft 282 kts 359°
2026-05-07 15:37 28.36212 113.21246 8731 ft 309 kts 19°
2026-05-07 15:37 28.38092 113.22658 9070 ft 344 kts 50°
2026-05-07 15:37 28.39174 113.25121 9958 ft 360 kts 78°
2026-05-07 15:37 28.39338 113.27967 10751 ft 368 kts 97°
2026-05-07 15:38 28.38668 113.30500 11621 ft 375 kts 120°